Погода в Витязево

Россия / Краснодарский край     45°00′08″N   37°17′01″E
темп.,
°C
ветер,
м/с
пор.,
м/с
влажн.,
%
обл.,
%
осадки,
мм/ч
давл.,
гПа
погр.,
м
18 мая, ср
ср1800:00+16ю697730 0.0 1015278
03:00+16ю71078100 0.0 1014381
06:00+15ю81078100 0.0 1012425
09:00+16ю81275100 0.0 1011591
12:00+17ю91371100 0.0 1010817
15:00+16ююз71277100 0.0 1009756
18:00+14зюз5691100 1.6 1010394
21:00+13с8988100 2.1 1011651
19 мая, чт
чт1900:00+12сз897681 0.1 1014784
03:00+13зсз796994 0.1 1015702
06:00+13зсз786998 0.1 1016602
09:00+13зсз997295 0.6 1018833
12:00+14з886421 0.7 10191241
15:00+14з896814 1.8 10191192
18:00+14сз786995 1.1 10191051
21:00+13зсз467598 1.2 1021489
20 мая, пт
пт2000:00+14сз576910 0.4 1021394
03:00+14сз46685 0.8 1021282
06:00+14зсз5872100 0.3 1022320
09:00+16зсз7868100 1.5 1023734
12:00+17зсз686096 0.2 10231050
15:00+17зсз686150 0.4 1022762
18:00+17з456011 0.0 1022415
21:00+16юз457459 0.1 102278
21 мая, сб
сб2100:00+16ююз6874100 0.0 1021236
03:00+15ююз698537 0.0 1019239
06:00+15юз711855 0.0 1019402
09:00+16юз912755 0.0 1018736
12:00+16ююз111476100 0.0 1017843
15:00+16ююз12147373 0.0 1016853
18:00+16ююз12157744 0.0 1015780
21:00+15ююз111479100 0.0 1014627
22 мая, вс
вс2200:00+15ююз10138060 0.0 1013573
03:00+15ююз1012815 0.0 1011487
06:00+15ю10128298 0.0 1010470
09:00+17ю1114765 0.0 1008533
12:00+17ю11157321 0.0 1007565
15:00+17ююз10137522 0.0 1006486
18:00+16ююз7883100 0.3 1005428
21:00+15юз4590100 1.4 1006256